{"data":{"norad_id":47285,"epoch":"2026-05-25T03:27:53.161920Z","epoch_age_seconds":56335,"freshness":"FRESH","line1":"1 47285U 20100AD  26145.14436530 -.00000396  00000+0 -11355-2 0  9999","line2":"2 47285  87.8958 355.2338 0001728  86.7994 273.3332 13.12443400261704","mean_motion":13.124434,"eccentricity":0.0001728,"inclination_deg":87.8958,"raan_deg":355.2338,"arg_perigee_deg":86.7994,"mean_anomaly_deg":273.3332,"bstar":-0.0011355,"rev_number":26170,"period_min":109.71901721629,"perigee_km":1212.4098753162,"apogee_km":1215.0336216997,"semimajor_km":7591.858748508,"source":"CELESTRAK","updated_at":"2026-05-25T13:38:22.385186Z"}}